TimeEST,TemperatureF,Dew PointF,Humidity,Sea Level PressureIn,VisibilityMPH,Wind Direction,Wind SpeedMPH,Gust SpeedMPH,PrecipitationIn,Events,Conditions,WindDirDegrees,DateUTC
12:24 AM,55.4,53.6,94,29.57,5.0,South,5.8,-,0.01,Rain,Light Rain,180,2012-12-18 05:24:00
12:52 AM,55.0,53.1,93,29.55,10.0,South,6.9,-,0.01,,Overcast,180,2012-12-18 05:52:00
1:19 AM,55.4,53.6,94,29.55,10.0,SSW,9.2,-,N/A,,Mostly Cloudy,210,2012-12-18 06:19:00
1:32 AM,55.4,53.6,94,29.55,10.0,SSW,6.9,-,N/A,,Mostly Cloudy,200,2012-12-18 06:32:00
1:44 AM,55.4,53.6,94,29.55,10.0,SSW,8.1,-,N/A,,Mostly Cloudy,200,2012-12-18 06:44:00
1:52 AM,55.0,53.1,93,29.56,10.0,SSW,8.1,-,N/A,,Mostly Cloudy,200,2012-12-18 06:52:00
1:59 AM,55.4,53.6,94,29.55,10.0,SSW,9.2,-,N/A,,Mostly Cloudy,200,2012-12-18 06:59:00
2:52 AM,55.9,53.1,90,29.57,10.0,SW,11.5,-,N/A,,Overcast,220,2012-12-18 07:52:00
3:02 AM,55.4,53.6,94,29.56,10.0,SSW,9.2,-,N/A,,Mostly Cloudy,210,2012-12-18 08:02:00
3:17 AM,55.4,53.6,94,29.56,10.0,SW,8.1,-,N/A,,Scattered Clouds,220,2012-12-18 08:17:00
3:52 AM,55.0,52.0,89,29.56,10.0,SW,9.2,-,N/A,,Clear,220,2012-12-18 08:52:00
4:52 AM,54.0,51.1,90,29.56,10.0,SW,8.1,-,N/A,,Clear,220,2012-12-18 09:52:00
5:10 AM,53.6,50.0,88,29.56,10.0,SW,8.1,-,N/A,,Scattered Clouds,220,2012-12-18 10:10:00
5:52 AM,53.1,50.0,89,29.57,10.0,SW,8.1,-,N/A,,Partly Cloudy,230,2012-12-18 10:52:00
6:52 AM,53.1,50.0,89,29.57,10.0,SW,6.9,-,N/A,,Mostly Cloudy,230,2012-12-18 11:52:00
7:42 AM,53.6,50.0,88,29.59,10.0,SSW,10.4,-,N/A,,Mostly Cloudy,210,2012-12-18 12:42:00
7:52 AM,53.1,50.0,89,29.59,10.0,SW,11.5,-,N/A,,Mostly Cloudy,220,2012-12-18 12:52:00
8:52 AM,54.0,50.0,86,29.60,10.0,SW,8.1,-,N/A,,Mostly Cloudy,220,2012-12-18 13:52:00
9:52 AM,55.0,50.0,83,29.61,10.0,SW,10.4,-,N/A,,Mostly Cloudy,230,2012-12-18 14:52:00
10:52 AM,59.0,46.9,64,29.61,10.0,WSW,13.8,-,0.01,,Partly Cloudy,240,2012-12-18 15:52:00
11:52 AM,61.0,45.0,56,29.59,10.0,WSW,12.7,-,N/A,,Partly Cloudy,250,2012-12-18 16:52:00
12:52 PM,62.1,42.1,48,29.57,10.0,West,13.8,21.9,N/A,,Scattered Clouds,260,2012-12-18 17:52:00
1:52 PM,62.1,39.0,43,29.58,10.0,West,21.9,27.6,N/A,,Mostly Cloudy,260,2012-12-18 18:52:00
2:52 PM,59.0,35.1,41,29.60,10.0,West,17.3,26.5,N/A,,Scattered Clouds,260,2012-12-18 19:52:00
3:52 PM,57.0,37.9,49,29.63,10.0,WNW,17.3,24.2,N/A,,Scattered Clouds,290,2012-12-18 20:52:00
4:52 PM,54.0,34.0,47,29.66,10.0,WNW,17.3,27.6,N/A,,Scattered Clouds,290,2012-12-18 21:52:00
5:52 PM,52.0,35.1,53,29.69,10.0,WNW,21.9,26.5,N/A,,Partly Cloudy,290,2012-12-18 22:52:00
6:52 PM,50.0,35.1,57,29.72,10.0,WNW,12.7,-,N/A,,Partly Cloudy,290,2012-12-18 23:52:00
7:52 PM,48.9,33.1,54,29.75,10.0,West,15.0,24.2,N/A,,Clear,270,2012-12-19 00:52:00
8:52 PM,48.0,32.0,54,29.78,10.0,West,11.5,20.7,N/A,,Clear,280,2012-12-19 01:52:00
9:52 PM,46.9,30.9,54,29.80,10.0,West,13.8,-,N/A,,Clear,280,2012-12-19 02:52:00
10:52 PM,45.0,30.9,58,29.82,10.0,West,8.1,-,N/A,,Clear,260,2012-12-19 03:52:00
11:52 PM,42.1,30.0,62,29.81,10.0,West,5.8,-,N/A,,Clear,270,2012-12-19 04:52:00